This is the latest recevied weather packets stored in our database for station/object KM5VY. If no packets are shown the sender has not sent any weather packets the latest 10 day(s).
| Time | Temp. | Humidity | Pressure | Rain* | Wind** | Luminosity | Snow |
|---|---|---|---|---|---|---|---|
| 1788131182 | 29.44° C | 29% | 1022.7 hPa | 0 mm | - | - | - |
| 1788130581 | 29.44° C | 29% | 1022.7 hPa | 0 mm | - | - | - |
| 1788129980 | 30° C | 28% | 1022.7 hPa | 0 mm | - | - | - |
| 1788129379 | 30.56° C | 28% | 1022.7 hPa | 0 mm | - | - | - |
| 1788128778 | 30.56° C | 28% | 1022.7 hPa | 0 mm | - | - | - |
| 1788128188 | 31.11° C | 27% | 1022.7 hPa | 0 mm | - | - | - |
| 1788127576 | 31.11° C | 27% | 1023 hPa | 0 mm | - | - | - |
| 1788126975 | 31.11° C | 27% | 1023 hPa | 0 mm | - | - | - |
| 1788126374 | 31.11° C | 27% | 1023 hPa | 0 mm | - | - | - |
| 1788125773 | 31.67° C | 27% | 1023 hPa | 0 mm | - | - | - |
| 1788125173 | 32.22° C | 27% | 1023 hPa | 0 mm | - | - | - |
| 1788124571 | 32.22° C | 27% | 1023 hPa | 0 mm | - | - | - |
| 1788123971 | 32.22° C | 27% | 1023.4 hPa | 0 mm | - | - | - |
| 1788123369 | 32.22° C | 28% | 1023.4 hPa | 0 mm | - | - | - |
| 1788122768 | 32.22° C | 28% | 1023.7 hPa | 0 mm | - | - | - |
| 1788122167 | 32.78° C | 27% | 1024 hPa | 0 mm | - | - | - |
| 1788121566 | 32.78° C | 28% | 1024 hPa | 0 mm | - | - | - |
| 1788120965 | 32.78° C | 27% | 1024 hPa | 0 mm | - | - | - |
| 1788120364 | 33.33° C | 27% | 1024 hPa | 0 mm | - | - | - |
| 1788119763 | 33.33° C | 26% | 1024.4 hPa | 0 mm | - | - | - |
| 1788119162 | 33.89° C | 27% | 1024.4 hPa | 0 mm | - | - | - |
| 1788118561 | 33.89° C | 27% | 1024.4 hPa | 0 mm | - | - | - |
| 1788117960 | 33.89° C | 27% | 1024.4 hPa | 0 mm | - | - | - |
| 1788117359 | 33.89° C | 27% | 1024.7 hPa | 0 mm | - | - | - |
| 1788116758 | 33.33° C | 27% | 1025.1 hPa | 0 mm | - | - | - |
* Rain latest hour (hover to see other rain measurements)
** Current wind speed in m/s (hover to see current wind gust speed)